﻿_id,日時,10分間移動積算雨量(mm),1時間移動積算雨量(mm),日雨量(mm),累計雨量(mm)
1,2023-03-13T00:00:00,0,0,0,0
2,2023-03-13T00:01:00,0.5,0.5,0.5,0.5
3,2023-03-13T00:02:00,0.5,0.5,0.5,0.5
4,2023-03-13T00:03:00,0.5,0.5,0.5,0.5
5,2023-03-13T00:04:00,0.5,0.5,0.5,0.5
6,2023-03-13T00:05:00,0.5,0.5,0.5,0.5
7,2023-03-13T00:06:00,0.5,0.5,0.5,0.5
8,2023-03-13T00:07:00,0.5,0.5,0.5,0.5
9,2023-03-13T00:08:00,0.5,0.5,0.5,0.5
10,2023-03-13T00:09:00,0.5,0.5,0.5,0.5
11,2023-03-13T00:10:00,0.5,0.5,0.5,0.5
12,2023-03-13T00:11:00,0,0.5,0.5,0.5
13,2023-03-13T00:12:00,0,0.5,0.5,0.5
14,2023-03-13T00:13:00,0,0.5,0.5,0.5
15,2023-03-13T00:14:00,0,0.5,0.5,0.5
16,2023-03-13T00:15:00,0,0.5,0.5,0.5
17,2023-03-13T00:16:00,0,0.5,0.5,0.5
18,2023-03-13T00:17:00,0,0.5,0.5,0.5
19,2023-03-13T00:18:00,0,0.5,0.5,0.5
20,2023-03-13T00:19:00,0,0.5,0.5,0.5
21,2023-03-13T00:20:00,0,0.5,0.5,0.5
22,2023-03-13T00:21:00,0,0.5,0.5,0.5
23,2023-03-13T00:22:00,0,0.5,0.5,0.5
24,2023-03-13T00:23:00,0,0.5,0.5,0.5
25,2023-03-13T00:24:00,0,0.5,0.5,0.5
26,2023-03-13T00:25:00,0,0.5,0.5,0.5
27,2023-03-13T00:26:00,0,0.5,0.5,0.5
28,2023-03-13T00:27:00,0,0.5,0.5,0.5
29,2023-03-13T00:28:00,0,0.5,0.5,0.5
30,2023-03-13T00:29:00,0,0.5,0.5,0.5
31,2023-03-13T00:30:00,0,0.5,0.5,0.5
32,2023-03-13T00:31:00,0,0.5,0.5,0.5
33,2023-03-13T00:32:00,0,0.5,0.5,0.5
34,2023-03-13T00:33:00,0,0.5,0.5,0.5
35,2023-03-13T00:34:00,0,0.5,0.5,0.5
36,2023-03-13T00:35:00,0,0.5,0.5,0.5
37,2023-03-13T00:36:00,0,0.5,0.5,0.5
38,2023-03-13T00:37:00,0,0.5,0.5,0.5
39,2023-03-13T00:38:00,0,0.5,0.5,0.5
40,2023-03-13T00:39:00,0,0.5,0.5,0.5
41,2023-03-13T00:40:00,0,0.5,0.5,0.5
42,2023-03-13T00:41:00,0,0.5,0.5,0.5
43,2023-03-13T00:42:00,0,0.5,0.5,0.5
44,2023-03-13T00:43:00,0,0.5,0.5,0.5
45,2023-03-13T00:44:00,0,0.5,0.5,0.5
46,2023-03-13T00:45:00,0,0.5,0.5,0.5
47,2023-03-13T00:46:00,0,0.5,0.5,0.5
48,2023-03-13T00:47:00,0,0.5,0.5,0.5
49,2023-03-13T00:48:00,0,0.5,0.5,0.5
50,2023-03-13T00:49:00,0,0.5,0.5,0.5
51,2023-03-13T00:50:00,0,0.5,0.5,0.5
52,2023-03-13T00:51:00,0,0.5,0.5,0.5
53,2023-03-13T00:52:00,0,0.5,0.5,0.5
54,2023-03-13T00:53:00,0,0.5,0.5,0.5
55,2023-03-13T00:54:00,0,0.5,0.5,0.5
56,2023-03-13T00:55:00,0,0.5,0.5,0.5
57,2023-03-13T00:56:00,0,0.5,0.5,0.5
58,2023-03-13T00:57:00,0,0.5,0.5,0.5
59,2023-03-13T00:58:00,0,0.5,0.5,0.5
60,2023-03-13T00:59:00,0,0.5,0.5,0.5
61,2023-03-13T01:00:00,0,0.5,0.5,0.5
62,2023-03-13T01:01:00,0,0,0.5,0.5
63,2023-03-13T01:02:00,0,0,0.5,0.5
64,2023-03-13T01:03:00,0,0,0.5,0.5
65,2023-03-13T01:04:00,0,0,0.5,0.5
66,2023-03-13T01:05:00,0,0,0.5,0.5
67,2023-03-13T01:06:00,0,0,0.5,0.5
68,2023-03-13T01:07:00,0,0,0.5,0.5
69,2023-03-13T01:08:00,0,0,0.5,0.5
70,2023-03-13T01:09:00,0,0,0.5,0.5
71,2023-03-13T01:10:00,0,0,0.5,0.5
72,2023-03-13T01:11:00,0,0,0.5,0.5
73,2023-03-13T01:12:00,0,0,0.5,0.5
74,2023-03-13T01:13:00,0,0,0.5,0.5
75,2023-03-13T01:14:00,0,0,0.5,0.5
76,2023-03-13T01:15:00,0,0,0.5,0.5
77,2023-03-13T01:16:00,0,0,0.5,0.5
78,2023-03-13T01:17:00,0,0,0.5,0.5
79,2023-03-13T01:18:00,0,0,0.5,0.5
80,2023-03-13T01:19:00,0,0,0.5,0.5
81,2023-03-13T01:20:00,0,0,0.5,0.5
82,2023-03-13T01:21:00,0,0,0.5,0.5
83,2023-03-13T01:22:00,0,0,0.5,0.5
84,2023-03-13T01:23:00,0,0,0.5,0.5
85,2023-03-13T01:24:00,0,0,0.5,0.5
86,2023-03-13T01:25:00,0,0,0.5,0.5
87,2023-03-13T01:26:00,0,0,0.5,0.5
88,2023-03-13T01:27:00,0,0,0.5,0.5
89,2023-03-13T01:28:00,0,0,0.5,0.5
90,2023-03-13T01:29:00,0,0,0.5,0.5
91,2023-03-13T01:30:00,0,0,0.5,0.5
92,2023-03-13T01:31:00,0,0,0.5,0.5
93,2023-03-13T01:32:00,0,0,0.5,0.5
94,2023-03-13T01:33:00,0,0,0.5,0.5
95,2023-03-13T01:34:00,0,0,0.5,0.5
96,2023-03-13T01:35:00,0,0,0.5,0.5
97,2023-03-13T01:36:00,0,0,0.5,0.5
98,2023-03-13T01:37:00,0,0,0.5,0.5
99,2023-03-13T01:38:00,0,0,0.5,0.5
100,2023-03-13T01:39:00,0,0,0.5,0.5
101,2023-03-13T01:40:00,0,0,0.5,0.5
102,2023-03-13T01:41:00,0,0,0.5,0.5
103,2023-03-13T01:42:00,0,0,0.5,0.5
104,2023-03-13T01:43:00,0,0,0.5,0.5
105,2023-03-13T01:44:00,0,0,0.5,0.5
106,2023-03-13T01:45:00,0,0,0.5,0.5
107,2023-03-13T01:46:00,0,0,0.5,0.5
108,2023-03-13T01:47:00,0,0,0.5,0.5
109,2023-03-13T01:48:00,0,0,0.5,0.5
110,2023-03-13T01:49:00,0,0,0.5,0.5
111,2023-03-13T01:50:00,0,0,0.5,0.5
112,2023-03-13T01:51:00,0,0,0.5,0.5
113,2023-03-13T01:52:00,0,0,0.5,0.5
114,2023-03-13T01:53:00,0,0,0.5,0.5
115,2023-03-13T01:54:00,0,0,0.5,0.5
116,2023-03-13T01:55:00,0,0,0.5,0.5
117,2023-03-13T01:56:00,0,0,0.5,0.5
118,2023-03-13T01:57:00,0,0,0.5,0.5
119,2023-03-13T01:58:00,0,0,0.5,0.5
120,2023-03-13T01:59:00,0,0,0.5,0.5
121,2023-03-13T02:00:00,0,0,0.5,0.5
122,2023-03-13T02:01:00,0,0,0.5,0.5
123,2023-03-13T02:02:00,0,0,0.5,0.5
124,2023-03-13T02:03:00,0,0,0.5,0.5
125,2023-03-13T02:04:00,0,0,0.5,0.5
126,2023-03-13T02:05:00,0,0,0.5,0.5
127,2023-03-13T02:06:00,0,0,0.5,0.5
128,2023-03-13T02:07:00,0,0,0.5,0.5
129,2023-03-13T02:08:00,0,0,0.5,0.5
130,2023-03-13T02:09:00,1,1,1.5,1.5
131,2023-03-13T02:10:00,2,2,2.5,2.5
132,2023-03-13T02:11:00,3,3,3.5,3.5
133,2023-03-13T02:12:00,3,3,3.5,3.5
134,2023-03-13T02:13:00,3.5,3.5,4,4
135,2023-03-13T02:14:00,3.5,3.5,4,4
136,2023-03-13T02:15:00,3.5,3.5,4,4
137,2023-03-13T02:16:00,3.5,3.5,4,4
138,2023-03-13T02:17:00,3.5,3.5,4,4
139,2023-03-13T02:18:00,3.5,3.5,4,4
140,2023-03-13T02:19:00,2.5,3.5,4,4
141,2023-03-13T02:20:00,1.5,3.5,4,4
142,2023-03-13T02:21:00,0.5,3.5,4,4
143,2023-03-13T02:22:00,1,4,4.5,4.5
144,2023-03-13T02:23:00,0.5,4,4.5,4.5
145,2023-03-13T02:24:00,1,4.5,5,5
146,2023-03-13T02:25:00,1,4.5,5,5
147,2023-03-13T02:26:00,1,4.5,5,5
148,2023-03-13T02:27:00,1,4.5,5,5
149,2023-03-13T02:28:00,1,4.5,5,5
150,2023-03-13T02:29:00,1.5,5,5.5,5.5
151,2023-03-13T02:30:00,1.5,5,5.5,5.5
152,2023-03-13T02:31:00,1.5,5,5.5,5.5
153,2023-03-13T02:32:00,1,5,5.5,5.5
154,2023-03-13T02:33:00,1,5,5.5,5.5
155,2023-03-13T02:34:00,1,5.5,6,6
156,2023-03-13T02:35:00,1,5.5,6,6
157,2023-03-13T02:36:00,1,5.5,6,6
158,2023-03-13T02:37:00,1,5.5,6,6
159,2023-03-13T02:38:00,1,5.5,6,6
160,2023-03-13T02:39:00,0.5,5.5,6,6
161,2023-03-13T02:40:00,0.5,5.5,6,6
162,2023-03-13T02:41:00,0.5,5.5,6,6
163,2023-03-13T02:42:00,0.5,5.5,6,6
164,2023-03-13T02:43:00,1,6,6.5,6.5
165,2023-03-13T02:44:00,0.5,6,6.5,6.5
166,2023-03-13T02:45:00,0.5,6,6.5,6.5
167,2023-03-13T02:46:00,1,6.5,7,7
168,2023-03-13T02:47:00,1,6.5,7,7
169,2023-03-13T02:48:00,1,6.5,7,7
170,2023-03-13T02:49:00,1,6.5,7,7
171,2023-03-13T02:50:00,1,6.5,7,7
172,2023-03-13T02:51:00,1,6.5,7,7
173,2023-03-13T02:52:00,1,6.5,7,7
174,2023-03-13T02:53:00,1,7,7.5,7.5
175,2023-03-13T02:54:00,1,7,7.5,7.5
176,2023-03-13T02:55:00,1,7,7.5,7.5
177,2023-03-13T02:56:00,0.5,7,7.5,7.5
178,2023-03-13T02:57:00,1,7.5,8,8
179,2023-03-13T02:58:00,1,7.5,8,8
180,2023-03-13T02:59:00,1,7.5,8,8
181,2023-03-13T03:00:00,1,7.5,8,8
182,2023-03-13T03:01:00,1,7.5,8,8
183,2023-03-13T03:02:00,1,7.5,8,8
184,2023-03-13T03:03:00,0.5,7.5,8,8
185,2023-03-13T03:04:00,0.5,7.5,8,8
186,2023-03-13T03:05:00,0.5,7.5,8,8
187,2023-03-13T03:06:00,0.5,7.5,8,8
188,2023-03-13T03:07:00,0,7.5,8,8
189,2023-03-13T03:08:00,0,7.5,8,8
190,2023-03-13T03:09:00,0,6.5,8,8
191,2023-03-13T03:10:00,0,5.5,8,8
192,2023-03-13T03:11:00,0,4.5,8,8
193,2023-03-13T03:12:00,0,4.5,8,8
194,2023-03-13T03:13:00,0,4,8,8
195,2023-03-13T03:14:00,0,4,8,8
196,2023-03-13T03:15:00,0,4,8,8
197,2023-03-13T03:16:00,0,4,8,8
198,2023-03-13T03:17:00,0,4,8,8
199,2023-03-13T03:18:00,0,4,8,8
200,2023-03-13T03:19:00,0,4,8,8
201,2023-03-13T03:20:00,0,4,8,8
202,2023-03-13T03:21:00,0,4,8,8
203,2023-03-13T03:22:00,0,3.5,8,8
204,2023-03-13T03:23:00,0,3.5,8,8
205,2023-03-13T03:24:00,0,3,8,8
206,2023-03-13T03:25:00,0,3,8,8
207,2023-03-13T03:26:00,0,3,8,8
208,2023-03-13T03:27:00,0,3,8,8
209,2023-03-13T03:28:00,0,3,8,8
210,2023-03-13T03:29:00,0,2.5,8,8
211,2023-03-13T03:30:00,0,2.5,8,8
212,2023-03-13T03:31:00,0,2.5,8,8
213,2023-03-13T03:32:00,0,2.5,8,8
214,2023-03-13T03:33:00,0,2.5,8,8
215,2023-03-13T03:34:00,0,2,8,8
216,2023-03-13T03:35:00,0,2,8,8
217,2023-03-13T03:36:00,0,2,8,8
218,2023-03-13T03:37:00,0,2,8,8
219,2023-03-13T03:38:00,0,2,8,8
220,2023-03-13T03:39:00,0,2,8,8
221,2023-03-13T03:40:00,0,2,8,8
222,2023-03-13T03:41:00,0,2,8,8
223,2023-03-13T03:42:00,0,2,8,8
224,2023-03-13T03:43:00,0,1.5,8,8
225,2023-03-13T03:44:00,0,1.5,8,8
226,2023-03-13T03:45:00,0,1.5,8,8
227,2023-03-13T03:46:00,0,1,8,8
228,2023-03-13T03:47:00,0,1,8,8
229,2023-03-13T03:48:00,0,1,8,8
230,2023-03-13T03:49:00,0,1,8,8
231,2023-03-13T03:50:00,0,1,8,8
232,2023-03-13T03:51:00,0,1,8,8
233,2023-03-13T03:52:00,0,1,8,8
234,2023-03-13T03:53:00,0,0.5,8,8
235,2023-03-13T03:54:00,0,0.5,8,8
236,2023-03-13T03:55:00,0,0.5,8,8
237,2023-03-13T03:56:00,0,0.5,8,8
238,2023-03-13T03:57:00,0,0,8,8
239,2023-03-13T03:58:00,0,0,8,8
240,2023-03-13T03:59:00,0,0,8,8
241,2023-03-13T04:00:00,0,0,8,8
242,2023-03-13T04:01:00,0.5,0.5,8.5,8.5
243,2023-03-13T04:02:00,0.5,0.5,8.5,8.5
244,2023-03-13T04:03:00,0.5,0.5,8.5,8.5
245,2023-03-13T04:04:00,0.5,0.5,8.5,8.5
246,2023-03-13T04:05:00,0.5,0.5,8.5,8.5
247,2023-03-13T04:06:00,0.5,0.5,8.5,8.5
248,2023-03-13T04:07:00,0.5,0.5,8.5,8.5
249,2023-03-13T04:08:00,0.5,0.5,8.5,8.5
250,2023-03-13T04:09:00,0.5,0.5,8.5,8.5
251,2023-03-13T04:10:00,0.5,0.5,8.5,8.5
252,2023-03-13T04:11:00,0,0.5,8.5,8.5
253,2023-03-13T04:12:00,0,0.5,8.5,8.5
254,2023-03-13T04:13:00,0,0.5,8.5,8.5
255,2023-03-13T04:14:00,0,0.5,8.5,8.5
256,2023-03-13T04:15:00,0,0.5,8.5,8.5
257,2023-03-13T04:16:00,0,0.5,8.5,8.5
258,2023-03-13T04:17:00,0,0.5,8.5,8.5
259,2023-03-13T04:18:00,0.5,1,9,9
260,2023-03-13T04:19:00,0.5,1,9,9
261,2023-03-13T04:20:00,0.5,1,9,9
262,2023-03-13T04:21:00,0.5,1,9,9
263,2023-03-13T04:22:00,0.5,1,9,9
264,2023-03-13T04:23:00,0.5,1,9,9
265,2023-03-13T04:24:00,0.5,1,9,9
266,2023-03-13T04:25:00,0.5,1,9,9
267,2023-03-13T04:26:00,0.5,1,9,9
268,2023-03-13T04:27:00,0.5,1,9,9
269,2023-03-13T04:28:00,0,1,9,9
270,2023-03-13T04:29:00,0.5,1.5,9.5,9.5
271,2023-03-13T04:30:00,0.5,1.5,9.5,9.5
272,2023-03-13T04:31:00,0.5,1.5,9.5,9.5
273,2023-03-13T04:32:00,0.5,1.5,9.5,9.5
274,2023-03-13T04:33:00,0.5,1.5,9.5,9.5
275,2023-03-13T04:34:00,0.5,1.5,9.5,9.5
276,2023-03-13T04:35:00,0.5,1.5,9.5,9.5
277,2023-03-13T04:36:00,0.5,1.5,9.5,9.5
278,2023-03-13T04:37:00,1,2,10,10
279,2023-03-13T04:38:00,1,2,10,10
280,2023-03-13T04:39:00,0.5,2,10,10
281,2023-03-13T04:40:00,0.5,2,10,10
282,2023-03-13T04:41:00,0.5,2,10,10
283,2023-03-13T04:42:00,0.5,2,10,10
284,2023-03-13T04:43:00,0.5,2,10,10
285,2023-03-13T04:44:00,0.5,2,10,10
286,2023-03-13T04:45:00,0.5,2,10,10
287,2023-03-13T04:46:00,0.5,2,10,10
288,2023-03-13T04:47:00,0,2,10,10
289,2023-03-13T04:48:00,0,2,10,10
290,2023-03-13T04:49:00,0,2,10,10
291,2023-03-13T04:50:00,0,2,10,10
292,2023-03-13T04:51:00,0,2,10,10
293,2023-03-13T04:52:00,0,2,10,10
294,2023-03-13T04:53:00,0,2,10,10
295,2023-03-13T04:54:00,0,2,10,10
296,2023-03-13T04:55:00,0,2,10,10
297,2023-03-13T04:56:00,0,2,10,10
298,2023-03-13T04:57:00,0,2,10,10
299,2023-03-13T04:58:00,0,2,10,10
300,2023-03-13T04:59:00,0,2,10,10
301,2023-03-13T05:00:00,0,2,10,10
302,2023-03-13T05:01:00,0,1.5,10,10
303,2023-03-13T05:02:00,0,1.5,10,10
304,2023-03-13T05:03:00,0,1.5,10,10
305,2023-03-13T05:04:00,0,1.5,10,10
306,2023-03-13T05:05:00,0,1.5,10,10
307,2023-03-13T05:06:00,0,1.5,10,10
308,2023-03-13T05:07:00,,,,
309,2023-03-13T05:08:00,0,1.5,10,10
310,2023-03-13T05:09:00,0,1.5,10,10
311,2023-03-13T05:10:00,0,1.5,10,10
312,2023-03-13T05:11:00,0,1.5,10,10
313,2023-03-13T05:12:00,0,1.5,10,10
314,2023-03-13T05:13:00,0,1.5,10,10
315,2023-03-13T05:14:00,0,1.5,10,10
316,2023-03-13T05:15:00,0,1.5,10,10
317,2023-03-13T05:16:00,0,1.5,10,10
318,2023-03-13T05:17:00,0,1.5,10,10
319,2023-03-13T05:18:00,0,1,10,10
320,2023-03-13T05:19:00,0,1,10,10
321,2023-03-13T05:20:00,0,1,10,10
322,2023-03-13T05:21:00,0,1,10,10
323,2023-03-13T05:22:00,0,1,10,10
324,2023-03-13T05:23:00,0,1,10,10
325,2023-03-13T05:24:00,0,1,10,10
326,2023-03-13T05:25:00,0,1,10,10
327,2023-03-13T05:26:00,0,1,10,10
328,2023-03-13T05:27:00,0,1,10,10
329,2023-03-13T05:28:00,0,1,10,10
330,2023-03-13T05:29:00,0,0.5,10,10
331,2023-03-13T05:30:00,0,0.5,10,10
332,2023-03-13T05:31:00,0,0.5,10,10
333,2023-03-13T05:32:00,0,0.5,10,10
334,2023-03-13T05:33:00,0,0.5,10,10
335,2023-03-13T05:34:00,0,0.5,10,10
336,2023-03-13T05:35:00,0,0.5,10,10
337,2023-03-13T05:36:00,0,0.5,10,10
338,2023-03-13T05:37:00,0,0,10,10
339,2023-03-13T05:38:00,0,0,10,10
340,2023-03-13T05:39:00,0,0,10,10
341,2023-03-13T05:40:00,0,0,10,10
342,2023-03-13T05:41:00,0,0,10,10
343,2023-03-13T05:42:00,0,0,10,10
344,2023-03-13T05:43:00,0,0,10,10
345,2023-03-13T05:44:00,0,0,10,10
346,2023-03-13T05:45:00,0,0,10,10
347,2023-03-13T05:46:00,0,0,10,10
348,2023-03-13T05:47:00,0,0,10,10
349,2023-03-13T05:48:00,0,0,10,10
350,2023-03-13T05:49:00,0,0,10,10
351,2023-03-13T05:50:00,0,0,10,10
352,2023-03-13T05:51:00,0,0,10,10
353,2023-03-13T05:52:00,0,0,10,10
354,2023-03-13T05:53:00,0,0,10,10
355,2023-03-13T05:54:00,0,0,10,10
356,2023-03-13T05:55:00,0,0,10,10
357,2023-03-13T05:56:00,0,0,10,10
358,2023-03-13T05:57:00,0,0,10,10
359,2023-03-13T05:58:00,0,0,10,10
360,2023-03-13T05:59:00,0,0,10,10
361,2023-03-13T06:00:00,0,0,10,10
362,2023-03-13T06:01:00,0,0,10,10
363,2023-03-13T06:02:00,0,0,10,10
364,2023-03-13T06:03:00,0,0,10,10
365,2023-03-13T06:04:00,0,0,10,10
366,2023-03-13T06:05:00,0,0,10,10
367,2023-03-13T06:06:00,0,0,10,10
368,2023-03-13T06:07:00,0,0,10,10
369,2023-03-13T06:08:00,0,0,10,10
370,2023-03-13T06:09:00,0,0,10,10
371,2023-03-13T06:10:00,0,0,10,10
372,2023-03-13T06:11:00,0,0,10,10
373,2023-03-13T06:12:00,0,0,10,10
374,2023-03-13T06:13:00,0,0,10,10
375,2023-03-13T06:14:00,0,0,10,10
376,2023-03-13T06:15:00,0,0,10,10
377,2023-03-13T06:16:00,0,0,10,10
378,2023-03-13T06:17:00,0,0,10,10
379,2023-03-13T06:18:00,0,0,10,10
380,2023-03-13T06:19:00,0,0,10,10
381,2023-03-13T06:20:00,0,0,10,10
382,2023-03-13T06:21:00,0,0,10,10
383,2023-03-13T06:22:00,0,0,10,10
384,2023-03-13T06:23:00,0,0,10,10
385,2023-03-13T06:24:00,0,0,10,10
386,2023-03-13T06:25:00,0,0,10,10
387,2023-03-13T06:26:00,0,0,10,10
388,2023-03-13T06:27:00,0,0,10,10
389,2023-03-13T06:28:00,0,0,10,10
390,2023-03-13T06:29:00,0,0,10,10
391,2023-03-13T06:30:00,0,0,10,10
392,2023-03-13T06:31:00,0,0,10,10
393,2023-03-13T06:32:00,0,0,10,10
394,2023-03-13T06:33:00,0,0,10,10
395,2023-03-13T06:34:00,0,0,10,10
396,2023-03-13T06:35:00,0,0,10,10
397,2023-03-13T06:36:00,0,0,10,10
398,2023-03-13T06:37:00,0,0,10,10
399,2023-03-13T06:38:00,0,0,10,10
400,2023-03-13T06:39:00,0,0,10,10
401,2023-03-13T06:40:00,0,0,10,10
402,2023-03-13T06:41:00,0,0,10,10
403,2023-03-13T06:42:00,0,0,10,10
404,2023-03-13T06:43:00,0,0,10,10
405,2023-03-13T06:44:00,0,0,10,10
406,2023-03-13T06:45:00,0,0,10,10
407,2023-03-13T06:46:00,0,0,10,10
408,2023-03-13T06:47:00,0,0,10,10
409,2023-03-13T06:48:00,0,0,10,10
410,2023-03-13T06:49:00,0,0,10,10
411,2023-03-13T06:50:00,0,0,10,10
412,2023-03-13T06:51:00,0,0,10,10
413,2023-03-13T06:52:00,0,0,10,10
414,2023-03-13T06:53:00,0,0,10,10
415,2023-03-13T06:54:00,0,0,10,10
416,2023-03-13T06:55:00,0,0,10,10
417,2023-03-13T06:56:00,0,0,10,10
418,2023-03-13T06:57:00,0,0,10,10
419,2023-03-13T06:58:00,0,0,10,10
420,2023-03-13T06:59:00,0,0,10,10
421,2023-03-13T07:00:00,0,0,10,10
422,2023-03-13T07:01:00,0,0,10,10
423,2023-03-13T07:02:00,0,0,10,10
424,2023-03-13T07:03:00,0,0,10,10
425,2023-03-13T07:04:00,0,0,10,10
426,2023-03-13T07:05:00,0,0,10,10
427,2023-03-13T07:06:00,0,0,10,10
428,2023-03-13T07:07:00,0,0,10,10
429,2023-03-13T07:08:00,0,0,10,10
430,2023-03-13T07:09:00,0,0,10,10
431,2023-03-13T07:10:00,0,0,10,10
432,2023-03-13T07:11:00,0,0,10,10
433,2023-03-13T07:12:00,0,0,10,10
434,2023-03-13T07:13:00,0,0,10,10
435,2023-03-13T07:14:00,0,0,10,10
436,2023-03-13T07:15:00,0,0,10,10
437,2023-03-13T07:16:00,0,0,10,10
438,2023-03-13T07:17:00,0,0,10,10
439,2023-03-13T07:18:00,0,0,10,10
440,2023-03-13T07:19:00,,,,
441,2023-03-13T07:20:00,0,0,10,10
442,2023-03-13T07:21:00,0,0,10,10
443,2023-03-13T07:22:00,0,0,10,10
444,2023-03-13T07:23:00,0,0,10,10
445,2023-03-13T07:24:00,0,0,10,10
446,2023-03-13T07:25:00,0,0,10,10
447,2023-03-13T07:26:00,0,0,10,10
448,2023-03-13T07:27:00,0,0,10,10
449,2023-03-13T07:28:00,0,0,10,10
450,2023-03-13T07:29:00,0,0,10,10
451,2023-03-13T07:30:00,0,0,10,10
452,2023-03-13T07:31:00,0,0,10,10
453,2023-03-13T07:32:00,0,0,10,10
454,2023-03-13T07:33:00,0,0,10,10
455,2023-03-13T07:34:00,0,0,10,10
456,2023-03-13T07:35:00,0,0,10,10
457,2023-03-13T07:36:00,0,0,10,10
458,2023-03-13T07:37:00,0,0,10,10
459,2023-03-13T07:38:00,0,0,10,10
460,2023-03-13T07:39:00,0,0,10,10
461,2023-03-13T07:40:00,0,0,10,10
462,2023-03-13T07:41:00,0,0,10,10
463,2023-03-13T07:42:00,0,0,10,10
464,2023-03-13T07:43:00,0,0,10,10
465,2023-03-13T07:44:00,0,0,10,10
466,2023-03-13T07:45:00,0,0,10,10
467,2023-03-13T07:46:00,0,0,10,10
468,2023-03-13T07:47:00,0,0,10,10
469,2023-03-13T07:48:00,0,0,10,10
470,2023-03-13T07:49:00,0,0,10,10
471,2023-03-13T07:50:00,0,0,10,10
472,2023-03-13T07:51:00,0,0,10,10
473,2023-03-13T07:52:00,0,0,10,10
474,2023-03-13T07:53:00,0,0,10,10
475,2023-03-13T07:54:00,0,0,10,10
476,2023-03-13T07:55:00,0,0,10,10
477,2023-03-13T07:56:00,0,0,10,10
478,2023-03-13T07:57:00,0,0,10,10
479,2023-03-13T07:58:00,0,0,10,10
480,2023-03-13T07:59:00,0,0,10,10
481,2023-03-13T08:00:00,0,0,10,10
482,2023-03-13T08:01:00,0,0,10,10
483,2023-03-13T08:02:00,0,0,10,10
484,2023-03-13T08:03:00,0,0,10,10
485,2023-03-13T08:04:00,0,0,10,10
486,2023-03-13T08:05:00,0,0,10,10
487,2023-03-13T08:06:00,0,0,10,10
488,2023-03-13T08:07:00,0,0,10,10
489,2023-03-13T08:08:00,0,0,10,10
490,2023-03-13T08:09:00,0,0,10,10
491,2023-03-13T08:10:00,0,0,10,10
492,2023-03-13T08:11:00,0,0,10,10
493,2023-03-13T08:12:00,0,0,10,10
494,2023-03-13T08:13:00,0,0,10,10
495,2023-03-13T08:14:00,0,0,10,10
496,2023-03-13T08:15:00,0,0,10,10
497,2023-03-13T08:16:00,0,0,10,10
498,2023-03-13T08:17:00,0,0,10,10
499,2023-03-13T08:18:00,0,0,10,10
500,2023-03-13T08:19:00,0,0,10,10
501,2023-03-13T08:20:00,0,0,10,10
502,2023-03-13T08:21:00,0,0,10,10
503,2023-03-13T08:22:00,0,0,10,10
504,2023-03-13T08:23:00,0,0,10,10
505,2023-03-13T08:24:00,0,0,10,10
506,2023-03-13T08:25:00,0,0,10,10
507,2023-03-13T08:26:00,0,0,10,10
508,2023-03-13T08:27:00,0,0,10,10
509,2023-03-13T08:28:00,0,0,10,10
510,2023-03-13T08:29:00,0,0,10,10
511,2023-03-13T08:30:00,0,0,10,10
512,2023-03-13T08:31:00,0,0,10,10
513,2023-03-13T08:32:00,0,0,10,10
514,2023-03-13T08:33:00,0,0,10,10
515,2023-03-13T08:34:00,0,0,10,10
516,2023-03-13T08:35:00,0,0,10,10
517,2023-03-13T08:36:00,0,0,10,10
518,2023-03-13T08:37:00,0,0,10,10
519,2023-03-13T08:38:00,0,0,10,10
520,2023-03-13T08:39:00,0,0,10,10
521,2023-03-13T08:40:00,0,0,10,10
522,2023-03-13T08:41:00,0,0,10,10
523,2023-03-13T08:42:00,0,0,10,10
524,2023-03-13T08:43:00,0,0,10,10
525,2023-03-13T08:44:00,0,0,10,10
526,2023-03-13T08:45:00,0,0,10,10
527,2023-03-13T08:46:00,0,0,10,10
528,2023-03-13T08:47:00,0,0,10,10
529,2023-03-13T08:48:00,0,0,10,10
530,2023-03-13T08:49:00,0,0,10,10
531,2023-03-13T08:50:00,0,0,10,10
532,2023-03-13T08:51:00,0,0,10,10
533,2023-03-13T08:52:00,0,0,10,10
534,2023-03-13T08:53:00,0,0,10,10
535,2023-03-13T08:54:00,0,0,10,10
536,2023-03-13T08:55:00,0,0,10,10
537,2023-03-13T08:56:00,0,0,10,10
538,2023-03-13T08:57:00,0,0,10,10
539,2023-03-13T08:58:00,0,0,10,10
540,2023-03-13T08:59:00,0,0,10,10
541,2023-03-13T09:00:00,0,0,10,10
542,2023-03-13T09:01:00,0,0,10,10
543,2023-03-13T09:02:00,0,0,10,10
544,2023-03-13T09:03:00,0,0,10,10
545,2023-03-13T09:04:00,0,0,10,10
546,2023-03-13T09:05:00,0,0,10,10
547,2023-03-13T09:06:00,0,0,10,10
548,2023-03-13T09:07:00,0,0,10,10
549,2023-03-13T09:08:00,0,0,10,10
550,2023-03-13T09:09:00,0,0,10,10
551,2023-03-13T09:10:00,0,0,10,10
552,2023-03-13T09:11:00,0,0,10,10
553,2023-03-13T09:12:00,0,0,10,10
554,2023-03-13T09:13:00,0,0,10,10
555,2023-03-13T09:14:00,0,0,10,10
556,2023-03-13T09:15:00,0,0,10,10
557,2023-03-13T09:16:00,0,0,10,10
558,2023-03-13T09:17:00,0,0,10,10
559,2023-03-13T09:18:00,0,0,10,10
560,2023-03-13T09:19:00,0,0,10,10
561,2023-03-13T09:20:00,0,0,10,10
562,2023-03-13T09:21:00,0,0,10,10
563,2023-03-13T09:22:00,0,0,10,10
564,2023-03-13T09:23:00,0,0,10,10
565,2023-03-13T09:24:00,0,0,10,10
566,2023-03-13T09:25:00,0,0,10,10
567,2023-03-13T09:26:00,0,0,10,10
568,2023-03-13T09:27:00,0,0,10,10
569,2023-03-13T09:28:00,0,0,10,10
570,2023-03-13T09:29:00,0,0,10,10
571,2023-03-13T09:30:00,0,0,10,10
572,2023-03-13T09:31:00,0,0,10,10
573,2023-03-13T09:32:00,0,0,10,10
574,2023-03-13T09:33:00,0,0,10,10
575,2023-03-13T09:34:00,0,0,10,10
576,2023-03-13T09:35:00,0,0,10,10
577,2023-03-13T09:36:00,0,0,10,10
578,2023-03-13T09:37:00,0,0,10,10
579,2023-03-13T09:38:00,0,0,10,10
580,2023-03-13T09:39:00,0,0,10,10
581,2023-03-13T09:40:00,0,0,10,10
582,2023-03-13T09:41:00,0,0,10,10
583,2023-03-13T09:42:00,0,0,10,10
584,2023-03-13T09:43:00,0,0,10,10
585,2023-03-13T09:44:00,0,0,10,10
586,2023-03-13T09:45:00,0,0,10,10
587,2023-03-13T09:46:00,0,0,10,10
588,2023-03-13T09:47:00,0,0,10,10
589,2023-03-13T09:48:00,0,0,10,10
590,2023-03-13T09:49:00,0,0,10,10
591,2023-03-13T09:50:00,0,0,10,10
592,2023-03-13T09:51:00,0,0,10,10
593,2023-03-13T09:52:00,0,0,10,10
594,2023-03-13T09:53:00,0,0,10,10
595,2023-03-13T09:54:00,0,0,10,10
596,2023-03-13T09:55:00,0,0,10,10
597,2023-03-13T09:56:00,0,0,10,10
598,2023-03-13T09:57:00,0,0,10,10
599,2023-03-13T09:58:00,0,0,10,10
600,2023-03-13T09:59:00,0,0,10,10
601,2023-03-13T10:00:00,0,0,10,10
602,2023-03-13T10:01:00,0,0,10,10
603,2023-03-13T10:02:00,0,0,10,10
604,2023-03-13T10:03:00,0,0,10,10
605,2023-03-13T10:04:00,0,0,10,10
606,2023-03-13T10:05:00,0,0,10,10
607,2023-03-13T10:06:00,0,0,10,10
608,2023-03-13T10:07:00,0,0,10,10
609,2023-03-13T10:08:00,0,0,10,10
610,2023-03-13T10:09:00,0,0,10,10
611,2023-03-13T10:10:00,0,0,10,10
612,2023-03-13T10:11:00,0,0,10,10
613,2023-03-13T10:12:00,0,0,10,10
614,2023-03-13T10:13:00,0,0,10,10
615,2023-03-13T10:14:00,0,0,10,10
616,2023-03-13T10:15:00,0,0,10,10
617,2023-03-13T10:16:00,0,0,10,10
618,2023-03-13T10:17:00,0,0,10,10
619,2023-03-13T10:18:00,0,0,10,10
620,2023-03-13T10:19:00,0,0,10,10
621,2023-03-13T10:20:00,0,0,10,10
622,2023-03-13T10:21:00,0,0,10,10
623,2023-03-13T10:22:00,0,0,10,10
624,2023-03-13T10:23:00,0,0,10,10
625,2023-03-13T10:24:00,0,0,10,10
626,2023-03-13T10:25:00,0,0,10,10
627,2023-03-13T10:26:00,0,0,10,10
628,2023-03-13T10:27:00,0,0,10,10
629,2023-03-13T10:28:00,0,0,10,10
630,2023-03-13T10:29:00,0,0,10,10
631,2023-03-13T10:30:00,0,0,10,10
632,2023-03-13T10:31:00,0,0,10,10
633,2023-03-13T10:32:00,0,0,10,10
634,2023-03-13T10:33:00,0,0,10,10
635,2023-03-13T10:34:00,0,0,10,10
636,2023-03-13T10:35:00,0,0,10,10
637,2023-03-13T10:36:00,0,0,10,10
638,2023-03-13T10:37:00,0,0,10,10
639,2023-03-13T10:38:00,0,0,10,10
640,2023-03-13T10:39:00,0,0,10,10
641,2023-03-13T10:40:00,0,0,10,10
642,2023-03-13T10:41:00,0,0,10,10
643,2023-03-13T10:42:00,0,0,10,10
644,2023-03-13T10:43:00,0,0,10,10
645,2023-03-13T10:44:00,0,0,10,10
646,2023-03-13T10:45:00,0,0,10,10
647,2023-03-13T10:46:00,0,0,10,10
648,2023-03-13T10:47:00,0,0,10,10
649,2023-03-13T10:48:00,0,0,10,10
650,2023-03-13T10:49:00,0,0,10,10
651,2023-03-13T10:50:00,0,0,10,10
652,2023-03-13T10:51:00,0,0,10,10
653,2023-03-13T10:52:00,0,0,10,10
654,2023-03-13T10:53:00,0,0,10,10
655,2023-03-13T10:54:00,0,0,10,10
656,2023-03-13T10:55:00,0,0,10,10
657,2023-03-13T10:56:00,0,0,10,10
658,2023-03-13T10:57:00,0,0,10,10
659,2023-03-13T10:58:00,0,0,10,10
660,2023-03-13T10:59:00,0,0,10,10
661,2023-03-13T11:00:00,0,0,10,10
662,2023-03-13T11:01:00,0,0,10,10
663,2023-03-13T11:02:00,0,0,10,10
664,2023-03-13T11:03:00,0,0,10,10
665,2023-03-13T11:04:00,0,0,10,10
666,2023-03-13T11:05:00,0,0,10,10
667,2023-03-13T11:06:00,0,0,10,10
668,2023-03-13T11:07:00,0,0,10,10
669,2023-03-13T11:08:00,0,0,10,10
670,2023-03-13T11:09:00,0,0,10,10
671,2023-03-13T11:10:00,0,0,10,10
672,2023-03-13T11:11:00,0,0,10,10
673,2023-03-13T11:12:00,0,0,10,10
674,2023-03-13T11:13:00,0,0,10,10
675,2023-03-13T11:14:00,0,0,10,10
676,2023-03-13T11:15:00,0,0,10,10
677,2023-03-13T11:16:00,0,0,10,10
678,2023-03-13T11:17:00,0,0,10,10
679,2023-03-13T11:18:00,0,0,10,10
680,2023-03-13T11:19:00,0,0,10,10
681,2023-03-13T11:20:00,0,0,10,10
682,2023-03-13T11:21:00,0,0,10,10
683,2023-03-13T11:22:00,0,0,10,10
684,2023-03-13T11:23:00,0,0,10,10
685,2023-03-13T11:24:00,0,0,10,10
686,2023-03-13T11:25:00,0,0,10,10
687,2023-03-13T11:26:00,0,0,10,10
688,2023-03-13T11:27:00,0,0,10,10
689,2023-03-13T11:28:00,0,0,10,10